Tallahassee, FL

7:51 AM EDT on June 25, 2017 (GMT -0400)
Tallahassee Regional

Weather History for KTLH - February, 2012

Change the Weather History Date:

Wednesday, February 15, 2012

  Actual Average Record
Temperature  
Mean Temperature 64 °F 55 °F  
Max Temperature 73 °F 68 °F 82 °F (1989)
Min Temperature 55 °F 42 °F 23 °F (1905)
Degree Days  
Heating Degree Days 1    
Month to date heating degree days 146  
Since 1 July heating degree days 957  
Cooling Degree Days 0    
Month to date cooling degree days 6  
Year to date cooling degree days 19  
Growing Degree Days 14 (Base 50)    
Moisture  
Dew Point 59 °F    
Average Humidity 84    
Maximum Humidity 100    
Minimum Humidity 68    
Precipitation  
Precipitation 0.00 in 0.16 in 3.16 in (1969)
Month to date precipitation 0.12 2.38  
Year to date precipitation 2.97 6.72  
Sea Level Pressure  
Sea Level Pressure 30.15 in    
Wind  
Wind Speed 4 mph (East)    
Max Wind Speed 10 mph    
Max Gust Speed 12 mph    
Visibility 6 miles    
Events Fog    
T = Trace of Precipitation, MM = Missing Value Source: NWS Daily Summary

Daily Weather History Graph

Daily Weather History Graph

Search for Another Location

Airport or City:

Trip Planner

Search our weather history database for the weather conditions in past years. The results will help you decide how hot, cold, wet, or windy it might be!

Date:

Astronomy

Feb. 15, 2012 Rise Set
Actual Time 7:18 AM EST 6:25 PM EST
Civil Twilight 6:53 AM EST 6:49 PM EST
Nautical Twilight 6:25 AM EST 7:18 PM EST
Astronomical Twilight 5:57 AM EST 7:46 PM EST
Moon 1:58 AM EST (2/15) 12:32 PM EST (2/15)
Length of Visible Light 11h 56m
Length of Day
11h 07m
Last Quarter, 39% of the Moon is Illuminated
Feb 15
Last Quarter
Feb 21
New
Feb 29
First Quarter
Mar 8
Full
Mar 14
Last Quarter

Hourly Weather History & Observations

Time (EST) Temp. Dew Point Humidity Pressure Visibility Wind Dir Wind Speed Gust Speed Precip Events Conditions
12:53 AM 57.9 °F 57.9 °F 100% 30.08 in 0.5 mi Calm Calm - N/A Fog Fog
1:40 AM 60.8 °F 59.0 °F 94% 30.09 in 3.0 mi North 3.5 mph - N/A   Overcast
1:53 AM 59.0 °F 59.0 °F 100% 30.09 in 3.0 mi NNW 6.9 mph - N/A   Overcast
2:53 AM 57.9 °F 57.9 °F 100% 30.09 in 10.0 mi North 4.6 mph - N/A   Overcast
3:31 AM 57.2 °F 57.2 °F 100% 30.10 in 0.5 mi NNW 4.6 mph - N/A Fog Fog
3:53 AM 57.0 °F 57.0 °F 100% 30.10 in 0.5 mi North 5.8 mph - N/A Fog Fog
4:53 AM 55.9 °F 55.9 °F 100% 30.12 in 0.8 mi North 4.6 mph - N/A   Overcast
5:53 AM 55.0 °F 55.0 °F 100% 30.13 in 0.8 mi North 6.9 mph - N/A   Overcast
6:53 AM 55.0 °F 55.0 °F 100% 30.16 in 0.8 mi NNW 3.5 mph - N/A   Overcast
7:17 AM 55.4 °F 55.4 °F 100% 30.17 in 1.0 mi NNE 3.5 mph - N/A   Overcast
7:39 AM 55.4 °F 55.4 °F 100% 30.17 in 3.0 mi Calm Calm - N/A   Overcast
7:53 AM 55.9 °F 55.0 °F 97% 30.17 in 3.0 mi Calm Calm - N/A   Overcast
8:36 AM 57.2 °F 55.4 °F 94% 30.19 in 7.0 mi NE 3.5 mph - N/A   Overcast
8:53 AM 57.0 °F 55.0 °F 93% 30.19 in 9.0 mi ENE 3.5 mph - N/A   Overcast
9:53 AM 57.9 °F 55.0 °F 90% 30.19 in 10.0 mi NE 4.6 mph - N/A   Overcast
10:53 AM 59.0 °F 55.0 °F 87% 30.20 in 10.0 mi ESE 3.5 mph - N/A   Overcast
11:53 AM 61.0 °F 57.0 °F 87% 30.20 in 10.0 mi Calm Calm - N/A   Overcast
12:53 PM 64.9 °F 59.0 °F 81% 30.17 in 10.0 mi ESE 6.9 mph - N/A   Overcast
1:03 PM 64.4 °F 59.0 °F 83% 30.17 in 10.0 mi South 4.6 mph - N/A   Overcast
1:53 PM 64.9 °F 60.1 °F 84% 30.15 in 10.0 mi Calm Calm - N/A   Mostly Cloudy
2:51 PM 68.0 °F 60.8 °F 78% 30.14 in 10.0 mi Calm Calm - N/A   Mostly Cloudy
2:53 PM 68.0 °F 60.1 °F 76% 30.14 in 10.0 mi Calm Calm - N/A   Mostly Cloudy
3:17 PM 69.8 °F 60.8 °F 73% 30.14 in 10.0 mi WSW 5.8 mph - N/A   Scattered Clouds
3:53 PM 71.1 °F 61.0 °F 70% 30.14 in 10.0 mi Calm Calm - N/A   Partly Cloudy
4:53 PM 72.0 °F 60.1 °F 66% 30.14 in 10.0 mi Calm Calm - N/A   Partly Cloudy
5:53 PM 70.0 °F 61.0 °F 73% 30.13 in 10.0 mi SE 4.6 mph - N/A   Partly Cloudy
6:53 PM 66.0 °F 61.0 °F 84% 30.14 in 10.0 mi SE 4.6 mph - N/A   Clear
7:53 PM 64.9 °F 63.0 °F 93% 30.16 in 10.0 mi SSE 5.8 mph - N/A   Partly Cloudy
8:12 PM 64.4 °F 62.6 °F 94% 30.16 in 10.0 mi SSE 6.9 mph - N/A   Mostly Cloudy
8:45 PM 64.4 °F 62.6 °F 94% 30.16 in 10.0 mi SE 3.5 mph - N/A   Overcast
8:53 PM 64.0 °F 63.0 °F 96% 30.17 in 10.0 mi SE 4.6 mph - N/A   Overcast
9:53 PM 64.0 °F 63.0 °F 96% 30.17 in 5.0 mi SSE 4.6 mph - N/A   Overcast
10:16 PM 62.6 °F 62.6 °F 100% 30.17 in 0.8 mi SE 3.5 mph - N/A   Overcast
10:53 PM 63.0 °F 63.0 °F 100% 30.16 in 0.8 mi ESE 3.5 mph - N/A   Mist
11:53 PM 64.0 °F 63.0 °F 96% 30.15 in 0.5 mi SE 4.6 mph - N/A Fog Fog